Weather History for Stanton, MN

Change the Weather History Date:

Thursday, May 8, 2014

  Actual Average (KLVN) Record (KLVN)
Temperature  
Mean Temperature 64 °F -  
Max Temperature 75 °F 67 °F 90 °F (1990)
Min Temperature 52 °F 44 °F 28 °F (1955)
Degree Days  
Heating Degree Days 2    
Growing Degree Days 14 (Base 50)    
Moisture  
Dew Point 54 °F    
Average Humidity 81    
Maximum Humidity 93    
Minimum Humidity 50    
Precipitation  
Precipitation 0.43 in - - ()
Sea Level Pressure  
Sea Level Pressure 29.63 in    
Wind  
Wind Speed 9 mph (East)    
Max Wind Speed 22 mph    
Max Gust Speed 31 mph    
Visibility 8 miles    
Events Rain , Thunderstorm    
Averages and records for this station are not official NWS values.
T = Trace of Precipitation, MM = Missing Value Source: NWS Daily Summary

Daily Weather History Graph

Daily Weather History Graph

Search for Another Location

Airport:

Trip Planner

Search our weather history database for the weather conditions in past years. The results will help you decide how hot, cold, wet, or windy it might be!

Date:

Astronomy

May. 08, 2014 Rise Set
Actual Time 5:52 AM CDT 8:24 PM CDT
Civil Twilight 5:20 AM CDT 8:57 PM CDT
Nautical Twilight 4:39 AM CDT 9:39 PM CDT
Astronomical Twilight 3:52 AM CDT 10:26 PM CDT
Moon 2:12 PM CDT (5/8) 2:39 AM CDT (5/8)
Length of Visible Light 15h 37m
Length of Day
14h 31m
Waxing Gibbous, 65% of the Moon is Illuminated
May 8
Waxing Gibbous
May 14
Full
May 21
Last Quarter
May 28
New
Jun 5
First Quarter

Hourly Weather History & Observations

Time (CDT) Temp. Dew Point Humidity Pressure Visibility Wind Dir Wind Speed Gust Speed Precip Events Conditions
12:12 AM 55.4 °F 50.0 °F 82% 29.66 in 10.0 mi East 11.5 mph - N/A Thunderstorm Thunderstorm
12:32 AM 55.4 °F 49.5 °F 80% 29.68 in 10.0 mi ENE 10.4 mph - N/A   Clear
12:52 AM 54.7 °F 49.3 °F 82% 29.66 in 10.0 mi ENE 12.7 mph - N/A   Clear
1:12 AM 54.0 °F 49.1 °F 84% 29.68 in 10.0 mi NE 13.8 mph - N/A   Clear
1:32 AM 53.6 °F 48.7 °F 84% 29.66 in 10.0 mi NE 16.1 mph 19.6 mph N/A   Clear
1:52 AM 53.2 °F 48.6 °F 84% 29.67 in 10.0 mi ENE 15.0 mph - N/A   Clear
2:12 AM 53.1 °F 48.4 °F 84% 29.67 in 7.0 mi NE 12.7 mph - N/A   Clear
2:32 AM 52.7 °F 48.4 °F 85% 29.65 in 7.0 mi ENE 16.1 mph - N/A   Clear
2:52 AM 52.2 °F 48.2 °F 86% 29.66 in 7.0 mi ENE 10.4 mph 18.4 mph N/A   Clear
3:12 AM 52.3 °F 48.2 °F 86% 29.65 in 7.0 mi NE 6.9 mph - N/A   Clear
3:32 AM 52.5 °F 48.2 °F 85% 29.63 in 7.0 mi East 12.7 mph - N/A   Clear
3:52 AM 52.9 °F 48.2 °F 84% 29.67 in 7.0 mi East 6.9 mph - N/A   Clear
4:13 AM 53.1 °F 48.4 °F 84% 29.70 in 7.0 mi ESE 4.6 mph - N/A   Clear
4:32 AM 53.1 °F 48.6 °F 85% 29.70 in 7.0 mi East 5.8 mph - N/A   Scattered Clouds
4:52 AM 53.6 °F 48.6 °F 83% 29.71 in 7.0 mi ESE 6.9 mph - N/A Rain Light Rain
5:12 AM 53.1 °F 48.7 °F 85% 29.65 in 7.0 mi NE 10.4 mph - N/A Rain Light Rain
5:33 AM 52.7 °F 48.7 °F 86% 29.64 in 5.0 mi NE 8.1 mph - N/A   Scattered Clouds
5:52 AM 52.3 °F 48.6 °F 87% 29.66 in 5.0 mi NNE 10.4 mph - N/A   Clear
6:12 AM 52.2 °F 48.6 °F 88% 29.68 in 4.0 mi East 6.9 mph - N/A   Clear
6:33 AM 52.7 °F 49.1 °F 88% 29.70 in 4.0 mi East 8.1 mph - N/A   Clear
6:52 AM 52.9 °F 49.1 °F 87% 29.70 in 4.0 mi East 6.9 mph - N/A   Mostly Cloudy
7:12 AM 54.0 °F 49.6 °F 85% 29.70 in 5.0 mi ESE 8.1 mph - N/A   Mostly Cloudy
7:33 AM 54.9 °F 49.5 °F 82% 29.72 in 5.0 mi SSE 3.5 mph - N/A   Haze
7:52 AM 55.4 °F 49.6 °F 81% 29.77 in 5.0 mi SSW 5.8 mph - N/A Thunderstorm Haze
8:12 AM 54.9 °F 50.0 °F 84% 29.76 in 5.0 mi Calm Calm - N/A Rain Light Rain
8:33 AM 54.9 °F 51.1 °F 87% 29.74 in 4.0 mi East 4.6 mph - 0.01 in Rain , Thunderstorm Light Thunderstorms and Rain
8:52 AM 55.8 °F 51.4 °F 85% 29.68 in 4.0 mi East 12.7 mph - 0.01 in   Scattered Clouds
9:12 AM 57.4 °F 52.2 °F 83% 29.70 in 5.0 mi East 9.2 mph - N/A   Haze
9:33 AM 58.6 °F 52.3 °F 80% 29.70 in 7.0 mi ESE 3.5 mph - N/A   Scattered Clouds
9:52 AM 60.6 °F 53.2 °F 77% 29.68 in 7.0 mi ESE 8.1 mph - N/A   Scattered Clouds
10:12 AM 61.5 °F 52.9 °F 73% 29.69 in 7.0 mi ESE 4.6 mph - N/A   Scattered Clouds
10:33 AM 63.7 °F 53.8 °F 70% 29.68 in 10.0 mi SE 3.5 mph - N/A   Clear
10:52 AM 66.0 °F 55.4 °F 69% 29.68 in 10.0 mi SSE 6.9 mph - N/A   Clear
11:12 AM 67.3 °F 54.7 °F 64% 29.67 in 10.0 mi SE 5.8 mph - N/A   Scattered Clouds
11:33 AM 68.0 °F 55.4 °F 64% 29.68 in 10.0 mi SE 3.5 mph - N/A Thunderstorm Mostly Cloudy
11:52 AM 69.1 °F 55.4 °F 62% 29.67 in 10.0 mi SSE 3.5 mph - N/A Thunderstorm Overcast
12:12 PM 66.9 °F 57.9 °F 73% 29.71 in 10.0 mi West 10.4 mph - N/A Thunderstorm Thunderstorm
12:33 PM 63.0 °F 59.0 °F 87% 29.66 in 4.0 mi NE 5.8 mph - 0.15 in Rain , Thunderstorm Light Thunderstorms and Rain
12:52 PM 63.9 °F 59.5 °F 86% 29.65 in 5.0 mi East 10.4 mph - 0.15 in Rain , Thunderstorm Light Thunderstorms and Rain
1:12 PM 70.2 °F 60.3 °F 71% 29.64 in 10.0 mi ESE 4.6 mph - N/A   Mostly Cloudy
1:33 PM 70.9 °F 59.2 °F 66% 29.61 in 10.0 mi East 8.1 mph - N/A Thunderstorm Scattered Clouds
1:52 PM 72.5 °F 60.3 °F 65% 29.59 in 10.0 mi East 10.4 mph - N/A   Clear
2:12 PM 72.9 °F 60.4 °F 65% 29.58 in 10.0 mi ESE 6.9 mph - N/A Thunderstorm Scattered Clouds
2:32 PM 75.0 °F 55.0 °F 50% 29.56 in 10.0 mi SE 12.7 mph 18.4 mph N/A   Scattered Clouds
2:53 PM 74.1 °F 55.9 °F 53% 29.55 in 10.0 mi SE 8.1 mph - N/A   Scattered Clouds
3:12 PM 73.6 °F 57.0 °F 56% 29.56 in 10.0 mi SE 9.2 mph - 0.01 in Rain Light Rain
3:32 PM 71.4 °F 60.4 °F 68% 29.59 in 7.0 mi SW 12.7 mph 18.4 mph 0.03 in Rain , Thunderstorm Thunderstorms and Rain
3:52 PM 63.5 °F 59.9 °F 88% 29.59 in 1.2 mi South 21.9 mph 31.1 mph 0.25 in Rain , Thunderstorm Heavy Thunderstorms and Rain
4:12 PM 64.8 °F 60.8 °F 87% 29.60 in 7.0 mi SW 12.7 mph - 0.01 in Rain , Thunderstorm Light Thunderstorms and Rain
4:32 PM 64.6 °F 60.3 °F 86% 29.61 in 10.0 mi West 6.9 mph - 0.02 in Thunderstorm Unknown
4:52 PM 64.6 °F 60.3 °F 86% 29.60 in 10.0 mi WNW 3.5 mph - 0.02 in Thunderstorm Overcast
5:12 PM 63.9 °F 59.9 °F 87% 29.60 in 10.0 mi North 5.8 mph - N/A   Overcast
5:32 PM 63.5 °F 59.5 °F 87% 29.60 in 10.0 mi NNE 8.1 mph - N/A   Light Drizzle
5:52 PM 62.8 °F 58.5 °F 86% 29.60 in 10.0 mi North 8.1 mph - N/A Rain Light Rain
6:12 PM 61.9 °F 57.7 °F 86% 29.59 in 10.0 mi North 4.6 mph - N/A Thunderstorm Thunderstorm
6:32 PM 61.9 °F 57.7 °F 86% 29.58 in 10.0 mi NNE 3.5 mph - N/A   Overcast
6:52 PM 62.4 °F 57.6 °F 84% 29.57 in 10.0 mi NE 4.6 mph - N/A   Mostly Cloudy
7:12 PM 61.9 °F 57.6 °F 86% 29.56 in 10.0 mi NNE 5.8 mph - N/A Thunderstorm Mostly Cloudy
7:32 PM 62.1 °F 58.1 °F 87% 29.56 in 10.0 mi NE 5.8 mph - N/A   Mostly Cloudy
7:52 PM 61.7 °F 57.7 °F 87% 29.56 in 10.0 mi ENE 8.1 mph - N/A Thunderstorm Overcast
8:12 PM 61.5 °F 57.9 °F 88% 29.55 in 10.0 mi ENE 9.2 mph - N/A   Overcast
8:32 PM 61.3 °F 58.1 °F 89% 29.54 in 10.0 mi ENE 9.2 mph - N/A   Mostly Cloudy
8:52 PM 61.3 °F 58.5 °F 90% 29.53 in 10.0 mi ENE 8.1 mph - N/A   Mostly Cloudy
9:12 PM 60.8 °F 58.1 °F 91% 29.53 in 7.0 mi ENE 8.1 mph - N/A   Scattered Clouds
9:32 PM 60.1 °F 57.7 °F 92% 29.54 in 5.0 mi East 5.8 mph - N/A   Clear
9:52 PM 60.8 °F 58.6 °F 93% 29.53 in 7.0 mi East 4.6 mph - N/A   Clear
10:12 PM 64.6 °F 61.3 °F 89% 29.53 in 10.0 mi SSE 6.9 mph - N/A   Clear
10:32 PM 64.8 °F 59.5 °F 83% 29.53 in 10.0 mi South 5.8 mph - N/A   Clear
10:52 PM 66.2 °F 58.3 °F 76% 29.53 in 10.0 mi South 9.2 mph - N/A   Clear
11:12 PM 65.7 °F 57.7 °F 76% 29.53 in 10.0 mi South 6.9 mph - N/A   Scattered Clouds
11:32 PM 64.4 °F 57.4 °F 78% 29.53 in 10.0 mi South 8.1 mph - N/A   Scattered Clouds
11:52 PM 63.5 °F 57.2 °F 80% 29.53 in 10.0 mi South 8.1 mph - N/A   Scattered Clouds